DELTA 1 DEB, 7180

Orbit data source: Space-Track

DELTA 1 DEB, 7180 is space debris in SSO originally from a launch on Tue, 06 Nov 1973 UTC launched from the Air Force Western Test Range (AFWTR). Debris objects in space refer to the collection of defunct objects orbiting the Earth. Examples of debris include non-operational satellites, rocket bodies, and fragments generated from explosions, collisions, or faulty payload assembly.

Loading next visibility...
Identifier
7180, 1973-086ER
Orbit
SSO
Country
Flag of USUS
Related business
Manufacturer
Unknown
Mission
Spacecraft
Bus & Motor
Unknown
Mass
Unknown
Launch date (UTC)
1973-11-06 (53 years ago)
Launch vehicle
Unknown
Launch site
Air Force Western Test Range (AFWTR)
Object type
Payload
Rocket body
Debris
Shape & HBR
Unknown shape, 0.1 m
Radar Cross Section
Medium (>0.1 m² and <1 m²)

Expand to show TLE details & history
Last TLE update: 2 days ago

TLE from 2 days ago
0 DELTA 1 DEB
1  7180U 73086ER  26208.23398219  .00000298  00000-0  14741-2 0  9993
2  7180 102.2384 316.7546 0149664  67.8845 308.8320 12.79456860445812
Epoch: 2026-07-27T05:36Z
TLE epoch observation values (Epoch: 2026-07-27T05:36:56.061Z)
Latitude
14.98662°
Longitude
-75.71155°
Altitude
1,274.143 km
Speed
7.253 km/s
True Right ascension
20h 53m 46s
True Declination
14° 54' 24"
Sunlit
Object was in full shadow at epoch
Visualization orbit readout
Latitude
Unknown
Longitude
Unknown
Altitude
Unknown
Speed
Unknown
Apparent Right ascension
Unknown
Apparent Declination
Unknown
Sunlit
N/A
Visualization observer readout
Local Sidereal Time
08:42:41
Azimuth
Unknown
Elevation
Unknown
Doppler factor
Unknown
Orbital elements
Apogee altitude
1,456.722 km
Perigee altitude
1,225.661 km
Semi-major axis
7,719.329 km
Eccentricity
0.01497
Inclination
102.2384°
RAAN
316.7546°
Arg. of periapsis
67.8845°
True anomaly
307.48029°
Mean anomaly
308.832°
Eccentric anomaly
308.15773°
Mean motion
3.20018 °/min
Orbital period
112.49 mins
BSTAR
0.0014741
Loading maneuver chart data...
Computing Atmospheric mass density...
Loading historical data...
Loading historical data...
Loading historical data...
Loading historical data...
Loading historical data...
Loading historical data...
Loading historical data...

Documentation

Showing up to 5 results
|